QPF
0.02 0.02 0.02 0.01 0.02 0.02 0.02 0.02 0.02 0.02 0.02 0.02 0.02 0.02 0.02 0.01 0.01 0.01 0.01 0.01 0.01 0.02 0.02 0.03 0.02 0.01 0.01 0.01 0.02 0.02 0.01 0.01 0.01 0.01 0.01 0.02 0.02 0.02
0.02 0.02 0.01 0.01 0.02 0.02 0.03 0.03 0.02 0.02 0.02 0.01 0.02 0.03 0.03 0.02 0.02 0.01 0.01 0.01 0.01 0.01 0.02 0.03 0.03 0.01 0.01 0.01 0.02 0.02 0.02 0.02 0.01 0.01 0.01 0.01 0.01 0.01
0.01 0.02 0.02 0.01 0.02 0.02 0.03 0.03 0.03 0.02 0.02 0.01 0.02 0.03 0.03 0.02 0.02 0.01 0.01 0.01 0.01 0.01 0.02 0.03 0.03 0.02 0.01 0.01 0.01 0.02 0.02 0.02 0.02 0.02 0.01 0.01 0.01 0.01
0.01 0.01 0.02 0.02 0.02 0.02 0.03 0.04 0.03 0.03 0.02 0.02 0.02 0.02 0.03 0.02 0.02 0.02 0.01 0.01 0.01 0.01 0.02 0.02 0.03 0.03 0.02 0.01 0.01 0.02 0.02 0.02 0.02 0.02 0.02 0.01 0.01 0.01
0.03 0.03 0.03 0.03 0.03 0.02 0.03 0.04 0.04 0.05 0.02 0.02 0.02 0.02 0.02 0.02 0.02 0.02 0.02 0.01 0.01 0.01 0.02 0.02 0.03 0.03 0.03 0.02 0.01 0.02 0.02 0.02 0.02 0.02 0.02 0.02 0.02 0.01
0.04 0.04 0.04 0.04 0.04 0.04 0.04 0.05 0.06 0.06 0.04 0.01 0.01 0.02 0.02 0.02 0.02 0.03 0.02 0.02 0.01 0.01 0.02 0.02 0.03 0.03 0.03 0.03 0.02 0.02 0.03 0.02 0.02 0.02 0.02 0.02 0.02 0.02
0.02 0.03 0.03 0.04 0.04 0.03 0.03 0.04 0.06 0.06 0.05 0.03 0.02 0.02 0.02 0.02 0.03 0.03 0.03 0.02 0.02 0.02 0.02 0.02 0.03 0.03 0.03 0.03 0.03 0.02 0.02 0.03 0.02 0.02 0.02 0.02 0.02 0.02
0.01 0.01 0.02 0.03 0.03 0.03 0.04 0.04 0.05 0.05 0.04 0.04 0.03 0.02 0.02 0.02 0.02 0.02 0.04 0.04 0.04 0.04 0.03 0.03 0.03 0.04 0.04 0.04 0.03 0.02 0.02 0.03 0.03 0.02 0.02 0.02 0.02 0.02
0.02 0.02 0.02 0.02 0.02 0.02 0.03 0.05 0.05 0.04 0.04 0.03 0.03 0.02 0.02 0.02 0.02 0.03 0.04 0.04 0.04 0.04 0.05 0.06 0.05 0.05 0.05 0.05 0.04 0.03 0.02 0.02 0.03 0.03 0.03 0.02 0.02 0.02
0.03 0.02 0.02 0.02 0.02 0.03 0.03 0.04 0.04 0.04 0.03 0.03 0.03 0.02 0.02 0.03 0.03 0.04 0.04 0.05 0.04 0.04 0.05 0.06 0.06 0.05 0.05 0.05 0.05 0.04 0.04 0.03 0.04 0.04 0.04 0.04 0.03 0.03
0.03 0.02 0.02 0.02 0.02 0.03 0.03 0.03 0.03 0.03 0.03 0.03 0.04 0.04 0.04 0.04 0.05 0.06 0.07 0.08 0.07 0.05 0.05 0.05 0.05 0.05 0.05 0.05 0.05 0.05 0.05 0.05 0.04 0.05 0.05 0.05 0.04 0.04
0.03 0.03 0.02 0.02 0.02 0.03 0.03 0.03 0.04 0.03 0.03 0.03 0.03 0.03 0.04 0.04 0.05 0.06 0.07 0.08 0.07 0.06 0.05 0.05 0.05 0.05 0.05 0.05 0.05 0.04 0.05 0.05 0.05 0.05 0.05 0.05 0.05 0.04
0.03 0.02 0.02 0.02 0.02 0.03 0.03 0.03 0.03 0.03 0.03 0.02 0.03 0.03 0.03 0.03 0.03 0.04 0.05 0.07 0.07 0.06 0.05 0.05 0.04 0.04 0.05 0.05 0.04 0.04 0.04 0.04 0.04 0.05 0.05 0.05 0.05 0.05
0.02 0.02 0.01 0.02 0.02 0.03 0.03 0.03 0.03 0.03 0.03 0.03 0.03 0.03 0.03 0.03 0.04 0.04 0.05 0.05 0.05 0.06 0.05 0.05 0.05 0.05 0.05 0.05 0.04 0.04 0.04 0.03 0.03 0.04 0.05 0.06 0.06 0.06
0.02 0.02 0.02 0.02 0.02 0.02 0.03 0.03 0.03 0.03 0.03 0.03 0.04 0.04 0.04 0.04 0.04 0.04 0.04 0.04 0.04 0.04 0.04 0.05 0.05 0.05 0.06 0.06 0.05 0.04 0.04 0.03 0.03 0.03 0.04 0.06 0.06 0.07
0.03 0.02 0.02 0.02 0.02 0.02 0.02 0.03 0.03 0.03 0.03 0.03 0.03 0.04 0.04 0.04 0.04 0.03 0.03 0.04 0.04 0.04 0.04 0.05 0.05 0.06 0.07 0.06 0.06 0.05 0.04 0.03 0.03 0.03 0.04 0.05 0.05 0.06
0.03 0.03 0.02 0.02 0.02 0.02 0.02 0.02 0.03 0.04 0.04 0.04 0.03 0.03 0.03 0.04 0.04 0.03 0.03 0.03 0.03 0.03 0.03 0.04 0.04 0.05 0.05 0.05 0.05 0.04 0.04 0.03 0.03 0.03 0.03 0.04 0.04 0.04
0.04 0.03 0.03 0.02 0.02 0.02 0.02 0.03 0.03 0.03 0.04 0.04 0.04 0.04 0.03 0.03 0.03 0.03 0.02 0.03 0.03 0.03 0.02 0.03 0.03 0.04 0.04 0.04 0.04 0.03 0.03 0.03 0.03 0.03 0.03 0.03 0.04 0.04
0.05 0.04 0.03 0.03 0.02 0.02 0.02 0.02 0.03 0.03 0.03 0.03 0.04 0.04 0.04 0.03 0.03 0.02 0.02 0.02 0.02 0.02 0.02 0.02 0.03 0.04 0.04 0.03 0.03 0.02 0.02 0.02 0.02 0.03 0.03 0.03 0.04 0.04
0.04 0.04 0.04 0.03 0.02 0.03 0.02 0.02 0.02 0.02 0.02 0.02 0.03 0.03 0.03 0.03 0.03 0.02 0.02 0.02 0.02 0.02 0.02 0.01 0.02 0.03 0.03 0.03 0.03 0.02 0.02 0.02 0.02 0.03 0.03 0.03 0.03 0.03
0.03 0.03 0.03 0.03 0.03 0.03 0.03 0.03 0.02 0.02 0.02 0.02 0.02 0.02 0.02 0.02 0.02 0.02 0.02 0.02 0.02 0.02 0.02 0.01 0.01 0.01 0.02 0.02 0.03 0.03 0.02 0.02 0.02 0.03 0.03 0.03 0.03 0.03
0.02 0.03 0.03 0.03 0.02 0.03 0.03 0.03 0.03 0.02 0.02 0.02 0.02 0.02 0.02 0.02 0.02 0.02 0.02 0.02 0.02 0.02 0.01 0.01 0.01 0.01 0.02 0.03 0.03 0.03 0.02 0.02 0.02 0.03 0.03 0.04 0.04 0.04
0.02 0.02 0.02 0.02 0.02 0.02 0.02 0.02 0.02 0.02 0.02 0.02 0.02 0.01 0.01 0.02 0.02 0.02 0.02 0.01 0.01 0.01 0.01 0.01 0.02 0.02 0.02 0.02 0.02 0.02 0.02 0.03 0.03 0.03 0.03 0.03 0.03 0.03
MSLP
1028.52 1028.77 1029.02 1029.25 1029.46 1029.67 1029.88 1030.09 1030.31 1030.52 1030.71 1030.88 1031.00 1031.05 1031.04 1030.95 1030.79 1030.59 1030.37 1030.14 1029.93 1029.74 1029.58 1029.44 1029.29 1029.12 1028.92 1028.68 1028.39 1028.07 1027.72 1027.37 1027.04 1026.73 1026.47 1026.24 1026.05 1025.89
1028.24 1028.53 1028.81 1029.07 1029.32 1029.55 1029.78 1030.00 1030.22 1030.42 1030.62 1030.78 1030.90 1030.95 1030.94 1030.86 1030.72 1030.53 1030.33 1030.12 1029.93 1029.76 1029.61 1029.48 1029.35 1029.19 1029.00 1028.76 1028.48 1028.16 1027.82 1027.46 1027.12 1026.81 1026.53 1026.29 1026.08 1025.89
1027.77 1028.09 1028.40 1028.71 1028.99 1029.26 1029.51 1029.76 1030.00 1030.23 1030.44 1030.62 1030.75 1030.83 1030.84 1030.78 1030.66 1030.51 1030.32 1030.13 1029.95 1029.78 1029.64 1029.50 1029.36 1029.20 1029.00 1028.77 1028.49 1028.18 1027.84 1027.50 1027.17 1026.86 1026.57 1026.32 1026.09 1025.88
1027.12 1027.46 1027.80 1028.13 1028.45 1028.75 1029.04 1029.32 1029.60 1029.86 1030.11 1030.32 1030.50 1030.61 1030.67 1030.65 1030.58 1030.46 1030.30 1030.13 1029.95 1029.78 1029.62 1029.46 1029.30 1029.12 1028.91 1028.67 1028.39 1028.09 1027.77 1027.45 1027.13 1026.83 1026.55 1026.29 1026.05 1025.83
1026.33 1026.67 1027.02 1027.37 1027.70 1028.03 1028.35 1028.67 1028.98 1029.28 1029.57 1029.84 1030.06 1030.24 1030.35 1030.40 1030.38 1030.31 1030.19 1030.04 1029.87 1029.70 1029.53 1029.35 1029.16 1028.95 1028.72 1028.46 1028.18 1027.89 1027.58 1027.28 1026.98 1026.70 1026.44 1026.19 1025.94 1025.71
1025.46 1025.79 1026.13 1026.46 1026.80 1027.13 1027.46 1027.79 1028.13 1028.47 1028.80 1029.12 1029.41 1029.65 1029.83 1029.94 1029.99 1029.98 1029.91 1029.80 1029.66 1029.49 1029.31 1029.11 1028.90 1028.67 1028.41 1028.15 1027.86 1027.57 1027.28 1026.99 1026.72 1026.46 1026.21 1025.98 1025.74 1025.50
1024.58 1024.87 1025.17 1025.48 1025.79 1026.10 1026.43 1026.76 1027.11 1027.47 1027.83 1028.19 1028.53 1028.83 1029.08 1029.26 1029.39 1029.44 1029.43 1029.37 1029.27 1029.12 1028.95 1028.75 1028.52 1028.28 1028.01 1027.73 1027.45 1027.16 1026.88 1026.61 1026.36 1026.12 1025.88 1025.66 1025.43 1025.20
1023.73 1023.97 1024.22 1024.48 1024.75 1025.03 1025.33 1025.64 1025.98 1026.34 1026.72 1027.10 1027.47 1027.82 1028.13 1028.38 1028.58 1028.70 1028.76 1028.76 1028.70 1028.59 1028.44 1028.26 1028.04 1027.79 1027.53 1027.25 1026.97 1026.69 1026.41 1026.16 1025.91 1025.68 1025.47 1025.25 1025.03 1024.80
1022.93 1023.12 1023.31 1023.52 1023.73 1023.97 1024.23 1024.51 1024.83 1025.18 1025.55 1025.94 1026.34 1026.72 1027.07 1027.37 1027.62 1027.81 1027.93 1027.99 1027.99 1027.93 1027.82 1027.66 1027.47 1027.25 1027.00 1026.73 1026.46 1026.18 1025.92 1025.66 1025.43 1025.20 1024.99 1024.77 1024.55 1024.32
1022.19 1022.31 1022.45 1022.60 1022.77 1022.96 1023.18 1023.44 1023.73 1024.06 1024.42 1024.81 1025.20 1025.60 1025.97 1026.31 1026.60 1026.84 1027.01 1027.13 1027.18 1027.18 1027.12 1027.01 1026.85 1026.66 1026.44 1026.20 1025.94 1025.67 1025.41 1025.16 1024.92 1024.68 1024.46 1024.24 1024.01 1023.77
1021.47 1021.54 1021.62 1021.73 1021.86 1022.03 1022.22 1022.45 1022.72 1023.03 1023.38 1023.75 1024.14 1024.53 1024.91 1025.26 1025.58 1025.85 1026.07 1026.23 1026.33 1026.38 1026.37 1026.31 1026.21 1026.05 1025.87 1025.65 1025.41 1025.16 1024.90 1024.64 1024.39 1024.15 1023.91 1023.66 1023.41 1023.14
1020.77 1020.78 1020.82 1020.90 1021.01 1021.15 1021.32 1021.54 1021.80 1022.09 1022.42 1022.78 1023.15 1023.53 1023.91 1024.27 1024.59 1024.88 1025.13 1025.33 1025.47 1025.57 1025.61 1025.59 1025.53 1025.42 1025.27 1025.08 1024.87 1024.63 1024.37 1024.11 1023.84 1023.58 1023.31 1023.03 1022.75 1022.45
1020.08 1020.05 1020.05 1020.10 1020.18 1020.31 1020.47 1020.67 1020.92 1021.19 1021.51 1021.85 1022.20 1022.57 1022.94 1023.29 1023.63 1023.93 1024.20 1024.42 1024.60 1024.73 1024.82 1024.85 1024.83 1024.76 1024.64 1024.48 1024.29 1024.06 1023.80 1023.53 1023.25 1022.95 1022.65 1022.35 1022.03 1021.69
1019.45 1019.36 1019.32 1019.33 1019.39 1019.49 1019.63 1019.82 1020.04 1020.29 1020.58 1020.90 1021.23 1021.58 1021.94 1022.29 1022.63 1022.94 1023.23 1023.48 1023.70 1023.87 1023.99 1024.06 1024.08 1024.05 1023.96 1023.83 1023.65 1023.43 1023.17 1022.89 1022.58 1022.26 1021.93 1021.58 1021.22 1020.84
1018.92 1018.77 1018.68 1018.64 1018.65 1018.70 1018.80 1018.94 1019.12 1019.34 1019.59 1019.87 1020.18 1020.51 1020.85 1021.20 1021.55 1021.88 1022.20 1022.48 1022.73 1022.95 1023.11 1023.22 1023.28 1023.28 1023.22 1023.11 1022.94 1022.72 1022.46 1022.17 1021.84 1021.49 1021.11 1020.72 1020.32 1019.89
1018.55 1018.33 1018.17 1018.05 1017.99 1017.97 1018.00 1018.06 1018.17 1018.32 1018.51 1018.74 1019.02 1019.32 1019.65 1020.01 1020.37 1020.73 1021.08 1021.41 1021.71 1021.96 1022.17 1022.33 1022.42 1022.46 1022.43 1022.33 1022.17 1021.95 1021.68 1021.37 1021.02 1020.63 1020.22 1019.78 1019.33 1018.86
1018.39 1018.09 1017.84 1017.64 1017.47 1017.35 1017.27 1017.22 1017.23 1017.29 1017.39 1017.56 1017.78 1018.05 1018.37 1018.72 1019.10 1019.50 1019.89 1020.27 1020.62 1020.94 1021.20 1021.40 1021.54 1021.60 1021.60 1021.51 1021.36 1021.14 1020.85 1020.52 1020.13 1019.71 1019.25 1018.76 1018.26 1017.74
1018.45 1018.07 1017.73 1017.42 1017.14 1016.89 1016.67 1016.50 1016.38 1016.32 1016.32 1016.40 1016.56 1016.78 1017.08 1017.43 1017.83 1018.25 1018.69 1019.13 1019.54 1019.91 1020.23 1020.48 1020.65 1020.75 1020.76 1020.69 1020.53 1020.30 1020.00 1019.63 1019.21 1018.74 1018.23 1017.69 1017.12 1016.54
1018.69 1018.25 1017.82 1017.40 1017.01 1016.63 1016.28 1015.97 1015.72 1015.53 1015.42 1015.40 1015.48 1015.65 1015.91 1016.25 1016.65 1017.10 1017.57 1018.05 1018.51 1018.93 1019.29 1019.58 1019.79 1019.91 1019.94 1019.87 1019.71 1019.46 1019.14 1018.74 1018.27 1017.75 1017.18 1016.58 1015.95 1015.30
1019.04 1018.55 1018.06 1017.56 1017.06 1016.57 1016.11 1015.68 1015.30 1015.00 1014.78 1014.66 1014.66 1014.76 1014.97 1015.28 1015.67 1016.12 1016.61 1017.11 1017.59 1018.04 1018.44 1018.76 1018.98 1019.12 1019.15 1019.08 1018.91 1018.64 1018.28 1017.84 1017.33 1016.76 1016.13 1015.45 1014.74 1014.01
1019.41 1018.90 1018.36 1017.81 1017.25 1016.69 1016.14 1015.62 1015.15 1014.76 1014.45 1014.25 1014.16 1014.19 1014.34 1014.60 1014.95 1015.37 1015.84 1016.33 1016.82 1017.27 1017.67 1017.99 1018.22 1018.35 1018.38 1018.30 1018.10 1017.81 1017.42 1016.94 1016.38 1015.75 1015.06 1014.31 1013.53 1012.72
1019.68 1019.17 1018.63 1018.06 1017.48 1016.88 1016.30 1015.74 1015.22 1014.77 1014.40 1014.13 1013.97 1013.93 1014.01 1014.20 1014.49 1014.86 1015.28 1015.73 1016.18 1016.60 1016.97 1017.27 1017.49 1017.60 1017.61 1017.50 1017.28 1016.96 1016.54 1016.02 1015.42 1014.74 1013.98 1013.17 1012.31 1011.42
1019.77 1019.27 1018.74 1018.20 1017.63 1017.05 1016.47 1015.91 1015.39 1014.92 1014.52 1014.20 1013.99 1013.89 1013.90 1014.02 1014.23 1014.51 1014.86 1015.23 1015.62 1015.99 1016.31 1016.56 1016.74 1016.82 1016.80 1016.66 1016.42 1016.06 1015.61 1015.06 1014.41 1013.69 1012.89 1012.02 1011.10 1010.14
Thickness
5466 5466 5467 5468 5468 5469 5469 5469 5469 5471 5477 5481 5482 5485 5485 5486 5488 5490 5492 5494 5497 5499 5502 5505 5508 5510 5513 5515 5518 5520 5523 5525 5527 5530 5532 5535 5538 5540
5454 5455 5456 5456 5456 5457 5457 5457 5458 5459 5463 5470 5470 5471 5472 5473 5474 5476 5478 5481 5484 5486 5488 5491 5494 5497 5500 5502 5505 5507 5510 5513 5515 5518 5520 5523 5525 5527
5442 5443 5445 5445 5444 5444 5445 5445 5446 5447 5450 5455 5456 5457 5458 5459 5460 5462 5465 5468 5470 5472 5475 5478 5481 5484 5487 5489 5491 5494 5497 5499 5502 5505 5507 5510 5513 5516
5431 5431 5432 5433 5433 5433 5433 5434 5434 5435 5437 5440 5442 5442 5444 5445 5447 5449 5451 5454 5457 5459 5461 5464 5467 5470 5473 5475 5478 5480 5483 5486 5488 5492 5495 5498 5500 5502
5419 5419 5420 5420 5421 5421 5421 5422 5422 5424 5425 5426 5429 5429 5430 5431 5432 5435 5437 5440 5443 5446 5447 5450 5453 5455 5458 5461 5464 5466 5469 5473 5476 5478 5481 5484 5486 5489
5406 5407 5407 5408 5409 5409 5409 5410 5410 5410 5411 5412 5414 5416 5416 5417 5417 5421 5424 5427 5430 5432 5433 5436 5438 5441 5444 5448 5451 5453 5455 5457 5461 5464 5467 5470 5472 5475
5394 5394 5395 5395 5397 5397 5398 5398 5397 5397 5397 5398 5400 5402 5403 5403 5405 5407 5409 5412 5415 5418 5420 5422 5425 5428 5430 5433 5435 5438 5441 5444 5447 5450 5453 5455 5459 5462
5381 5382 5382 5383 5384 5384 5385 5386 5385 5385 5385 5385 5387 5389 5390 5390 5391 5392 5394 5396 5401 5405 5404 5408 5409 5413 5417 5419 5422 5424 5427 5430 5433 5436 5439 5442 5445 5448
5368 5368 5369 5370 5370 5370 5371 5372 5372 5372 5373 5374 5375 5376 5377 5377 5376 5378 5379 5380 5385 5387 5385 5394 5396 5399 5403 5406 5408 5411 5413 5416 5419 5422 5424 5427 5430 5433
5355 5355 5355 5356 5356 5357 5358 5358 5358 5359 5360 5361 5362 5365 5364 5363 5362 5363 5364 5365 5369 5370 5369 5376 5382 5384 5389 5392 5394 5397 5399 5402 5404 5407 5410 5413 5416 5419
5341 5342 5342 5343 5345 5345 5345 5346 5347 5347 5346 5347 5349 5350 5350 5350 5349 5348 5348 5349 5353 5356 5355 5357 5365 5368 5373 5378 5381 5382 5385 5387 5389 5393 5395 5398 5401 5403
5328 5329 5330 5331 5332 5332 5332 5332 5334 5334 5333 5335 5335 5337 5337 5336 5336 5335 5334 5334 5336 5340 5343 5342 5347 5348 5355 5363 5365 5368 5369 5372 5375 5378 5381 5384 5386 5388
5315 5316 5317 5318 5319 5319 5320 5320 5322 5321 5321 5321 5322 5322 5323 5323 5322 5321 5321 5321 5322 5326 5329 5327 5330 5332 5334 5344 5351 5353 5354 5357 5359 5362 5365 5368 5371 5373
5304 5304 5304 5305 5306 5306 5307 5308 5308 5308 5307 5308 5308 5309 5310 5310 5310 5309 5309 5309 5311 5314 5315 5314 5316 5318 5320 5325 5333 5339 5339 5340 5343 5347 5350 5353 5356 5359
5292 5293 5293 5293 5293 5292 5293 5294 5294 5293 5294 5294 5296 5297 5297 5297 5297 5297 5298 5298 5299 5301 5303 5303 5304 5305 5306 5310 5316 5321 5324 5327 5329 5332 5334 5338 5341 5344
5279 5280 5281 5280 5280 5280 5280 5280 5280 5280 5281 5282 5283 5283 5283 5283 5284 5284 5284 5286 5287 5290 5291 5291 5292 5293 5293 5296 5299 5304 5308 5310 5314 5316 5318 5322 5326 5329
5264 5265 5265 5266 5266 5266 5266 5267 5267 5267 5268 5269 5269 5270 5271 5271 5271 5271 5271 5272 5274 5277 5279 5280 5279 5280 5281 5283 5286 5290 5293 5296 5299 5301 5303 5308 5313 5316
5252 5251 5252 5252 5253 5254 5254 5255 5254 5255 5256 5256 5257 5258 5259 5259 5259 5259 5259 5260 5262 5264 5266 5266 5266 5267 5269 5272 5273 5276 5279 5282 5284 5286 5288 5293 5300 5304
5238 5238 5239 5240 5240 5241 5242 5242 5243 5243 5244 5244 5245 5246 5246 5247 5247 5247 5248 5249 5251 5253 5253 5253 5253 5253 5256 5261 5265 5263 5264 5268 5270 5272 5275 5278 5284 5290
5224 5224 5225 5226 5227 5228 5230 5231 5232 5232 5232 5233 5234 5234 5235 5235 5236 5236 5237 5238 5239 5241 5242 5243 5242 5242 5243 5247 5251 5254 5253 5253 5256 5259 5263 5266 5270 5276
5210 5211 5211 5213 5214 5215 5217 5218 5220 5221 5221 5222 5223 5223 5224 5224 5225 5226 5226 5227 5228 5229 5231 5233 5234 5233 5233 5233 5237 5243 5245 5244 5245 5248 5251 5254 5259 5265
5197 5198 5198 5200 5201 5202 5204 5205 5207 5209 5210 5211 5212 5212 5213 5214 5215 5216 5216 5217 5217 5218 5220 5222 5222 5223 5223 5224 5228 5231 5234 5236 5237 5239 5242 5245 5248 5254
5185 5185 5186 5187 5188 5190 5191 5193 5195 5197 5199 5200 5201 5202 5202 5203 5205 5206 5206 5207 5208 5208 5209 5210 5212 5212 5214 5216 5218 5220 5223 5226 5229 5231 5235 5237 5240 5245